User: anonymous   Login
Location: Chilton Park
(37.7711°N, 100.0276°W)
Time: 18:15:21
(UTC+00:00)
Language:

Cosmos 2228 Rocket - Orbit

View from above orbital plane
View from above orbital plane
View from above satellite
View from above satellite

Ground track
Ground track

The orbit data is extracted from the following two-line orbital elements,

1 22287U 92094B   22144.20771210  .00000359  00000-0  46064-4 0  9999
2 22287  82.5258 201.1770 0024416 190.0227 170.0502 14.78280736584759
Epoch (UTC): 24 May 2022 04:59:06
Eccentricity: 0.0024416
inclination: 82.5258°
perigee height: 617 km
apogee height: 652 km
right ascension of ascending node: 201.1770°
argument of perigee: 190.0227°
revolutions per day: 14.78280736
mean anomaly at epoch: 170.0502°
orbit number at epoch: 58475

The dashed part of the orbit path shows where the satellite is in the earth's shadow,  

DLR